EDT,Max TemperatureF,Mean TemperatureF,Min TemperatureF,Max Dew PointF,MeanDew PointF,Min DewpointF,Max Humidity, Mean Humidity, Min Humidity, Max Sea Level PressureIn, Mean Sea Level PressureIn, Min Sea Level PressureIn, Max VisibilityMiles, Mean VisibilityMiles, Min VisibilityMiles, Max Wind SpeedMPH, Mean Wind SpeedMPH, Max Gust SpeedMPH,PrecipitationIn, CloudCover, Events, WindDirDegrees
2014-3-1,38,25,12,25,15,2,72,59,45,30.43,30.30,30.14,10,10,7,16,5,22,0.00,4,,183
2014-3-2,41,34,27,27,23,19,85,65,44,30.12,30.03,29.97,10,10,7,10,5,13,T,7,Rain,297
2014-3-3,33,25,17,18,7,-3,81,60,39,30.31,30.12,29.99,10,7,1,22,14,29,0.06,7,Snow,347
2014-3-4,27,20,12,14,5,0,62,50,37,30.40,30.32,30.25,10,10,10,15,5,17,0.00,6,,316
2014-3-5,39,30,20,18,12,1,74,50,25,30.42,30.27,30.20,10,10,10,17,5,23,0.00,5,,7
2014-3-6,30,24,17,13,7,3,65,48,31,30.61,30.54,30.44,10,10,10,21,10,26,0.00,4,,36
2014-3-7,35,30,25,25,21,15,69,63,56,30.46,30.18,29.89,10,10,10,17,11,22,0.00,8,,32
2014-3-8,58,43,27,30,25,22,78,54,30,29.88,29.82,29.75,10,10,10,20,8,26,0.00,3,,321
2014-3-9,44,39,33,31,20,10,82,55,28,29.99,29.93,29.87,10,9,5,22,10,28,0.03,6,Rain,314
2014-3-10,48,42,35,35,26,12,85,62,38,29.91,29.78,29.62,10,9,2,13,6,16,T,7,Snow,201
2014-3-11,65,52,39,37,32,27,79,52,25,29.71,29.62,29.55,10,10,10,18,8,24,0.00,5,,256
2014-3-12,56,45,33,48,42,35,93,77,61,29.68,29.33,29.01,10,6,1,29,11,37,0.34,7,Rain,164
2014-3-13,33,26,19,30,9,-4,87,51,25,30.05,29.49,29.08,10,10,9,31,24,46,0.00,6,Snow,309
2014-3-14,41,30,19,30,13,0,65,47,28,30.23,30.10,29.94,10,10,10,24,13,33,0.00,5,,237
2014-3-15,61,51,41,35,28,22,70,47,24,29.96,29.83,29.75,10,10,10,32,13,43,0.01,4,Rain,255
2014-3-16,42,36,29,21,10,4,48,38,27,30.17,30.11,29.98,10,10,10,22,13,28,0.00,5,,329
2014-3-17,32,28,23,7,3,-2,46,37,27,30.14,30.08,30.04,10,10,10,22,10,29,0.00,7,,33
2014-3-18,44,33,21,22,13,4,69,46,22,30.30,30.23,30.12,10,10,10,17,8,24,0.00,1,,60
2014-3-19,48,38,27,43,30,22,89,74,58,30.32,30.15,29.82,10,10,4,26,13,32,0.72,6,Rain,90
2014-3-20,56,48,40,46,37,21,100,65,29,29.87,29.74,29.69,10,5,0,25,14,36,0.14,6,Fog-Rain,272
2014-3-21,50,40,29,22,20,18,63,46,29,30.06,29.95,29.87,10,10,10,25,12,33,0.00,2,,296
2014-3-22,63,47,30,38,29,20,82,54,25,30.06,29.89,29.75,10,10,10,25,12,33,0.00,4,,243
2014-3-23,44,35,26,26,17,6,69,49,29,30.07,30.00,29.94,10,10,10,23,10,30,0.00,5,,321
2014-3-24,34,27,20,7,4,2,50,39,28,30.22,30.15,30.08,10,10,10,26,12,32,0.00,3,,320
2014-3-25,38,28,18,19,13,7,62,49,35,30.16,30.04,29.82,10,10,10,21,6,28,T,6,Snow,110
2014-3-26,39,32,24,20,10,-1,63,43,22,30.17,29.82,29.69,10,9,3,37,21,51,T,5,Snow,335
2014-3-27,39,31,22,25,12,3,59,43,27,30.41,30.32,30.19,10,10,10,18,11,25,0.00,4,,256
2014-3-28,51,45,38,42,38,27,82,73,64,30.27,30.10,29.99,10,10,8,25,13,35,T,6,Rain,210
2014-3-29,55,46,36,47,41,34,93,82,71,30.19,30.05,29.72,10,4,2,25,9,37,2.68,6,Rain,68
2014-3-30,55,48,40,54,46,36,93,90,86,29.70,29.55,29.44,10,3,0,26,16,38,1.18,8,Fog-Rain,47
2014-3-31,46,40,33,36,31,26,92,73,53,30.03,29.80,29.63,10,6,0,24,16,32,0.74,6,Fog-Rain-Snow-Thunderstorm,347